Year,Month,Day,Hour,Minute,Value (Times are PST for temperature in C)
2014,04,06,00,00,7.50
2014,04,06,00,01,7.50
2014,04,06,00,02,7.50
2014,04,06,00,03,7.50
2014,04,06,00,04,7.50
2014,04,06,00,05,7.50
2014,04,06,00,06,7.50
2014,04,06,00,07,7.50
2014,04,06,00,08,7.50
2014,04,06,00,09,7.50
2014,04,06,00,10,7.50
2014,04,06,00,11,7.50
2014,04,06,00,12,7.50
2014,04,06,00,13,7.50
2014,04,06,00,14,7.50
2014,04,06,00,15,7.60
2014,04,06,00,16,7.60
2014,04,06,00,17,7.60
2014,04,06,00,18,7.60
2014,04,06,00,19,7.60
2014,04,06,00,20,7.60
2014,04,06,00,21,7.60
2014,04,06,00,22,7.60
2014,04,06,00,23,7.60
2014,04,06,00,24,7.60
2014,04,06,00,25,7.60
2014,04,06,00,26,7.60
2014,04,06,00,27,7.60
2014,04,06,00,28,7.60
2014,04,06,00,29,7.60
2014,04,06,00,30,7.60
2014,04,06,00,31,7.60
2014,04,06,00,32,7.60
2014,04,06,00,33,7.60
2014,04,06,00,34,7.70
2014,04,06,00,35,7.70
2014,04,06,00,36,7.70
2014,04,06,00,37,7.70
2014,04,06,00,38,7.70
2014,04,06,00,39,7.70
2014,04,06,00,40,7.70
2014,04,06,00,41,7.70
2014,04,06,00,42,7.70
2014,04,06,00,43,7.70
2014,04,06,00,44,7.70
2014,04,06,00,45,7.70
2014,04,06,00,46,7.70
2014,04,06,00,47,7.70
2014,04,06,00,48,7.70
2014,04,06,00,49,7.60
2014,04,06,00,50,7.60
2014,04,06,00,51,7.60
2014,04,06,00,52,7.60
2014,04,06,00,53,7.60
2014,04,06,00,54,7.60
2014,04,06,00,55,7.60
2014,04,06,00,56,7.60
2014,04,06,00,57,7.60
2014,04,06,00,58,7.60
2014,04,06,00,59,7.60
2014,04,06,01,00,7.60
2014,04,06,01,01,7.60
2014,04,06,01,02,7.60
2014,04,06,01,03,7.60
2014,04,06,01,04,7.60
2014,04,06,01,05,7.60
2014,04,06,01,06,7.60
2014,04,06,01,07,7.60
2014,04,06,01,08,7.60
2014,04,06,01,09,7.60
2014,04,06,01,10,7.60
2014,04,06,01,11,7.60
2014,04,06,01,12,7.60
2014,04,06,01,13,7.60
2014,04,06,01,14,7.60
2014,04,06,01,15,7.60
2014,04,06,01,16,7.60
2014,04,06,01,17,7.60
2014,04,06,01,18,7.60
2014,04,06,01,19,7.60
2014,04,06,01,20,7.60
2014,04,06,01,21,7.60
2014,04,06,01,22,7.60
2014,04,06,01,23,7.60
2014,04,06,01,24,7.60
2014,04,06,01,25,7.60
2014,04,06,01,26,7.60
2014,04,06,01,27,7.60
2014,04,06,01,28,7.60
2014,04,06,01,29,7.60
2014,04,06,01,30,7.60
2014,04,06,01,31,7.60
2014,04,06,01,32,7.60
2014,04,06,01,33,7.60
2014,04,06,01,34,7.60
2014,04,06,01,35,7.60
2014,04,06,01,36,7.60
2014,04,06,01,37,7.50
2014,04,06,01,38,7.50
2014,04,06,01,39,7.50
2014,04,06,01,40,7.50
2014,04,06,01,41,7.50
2014,04,06,01,42,7.50
2014,04,06,01,43,7.50
2014,04,06,01,44,7.50
2014,04,06,01,45,7.50
2014,04,06,01,46,7.50
2014,04,06,01,47,7.50
2014,04,06,01,48,7.50
2014,04,06,01,49,7.40
2014,04,06,01,50,7.40
2014,04,06,01,51,7.40
2014,04,06,01,52,7.40
2014,04,06,01,53,7.40
2014,04,06,01,54,7.40
2014,04,06,01,55,7.40
2014,04,06,01,56,7.40
2014,04,06,01,57,7.40
2014,04,06,01,58,7.40
2014,04,06,01,59,7.40
2014,04,06,02,00,7.40
2014,04,06,02,01,7.40
2014,04,06,02,02,7.30
2014,04,06,02,03,7.30
2014,04,06,02,04,7.30
2014,04,06,02,05,7.30
2014,04,06,02,06,7.40
2014,04,06,02,07,7.40
2014,04,06,02,08,7.40
2014,04,06,02,09,7.30
2014,04,06,02,10,7.30
2014,04,06,02,11,7.30
2014,04,06,02,12,7.30
2014,04,06,02,13,7.30
2014,04,06,02,14,7.30
2014,04,06,02,15,7.30
2014,04,06,02,16,7.30
2014,04,06,02,17,7.30
2014,04,06,02,18,7.30
2014,04,06,02,19,7.30
2014,04,06,02,20,7.30
2014,04,06,02,21,7.20
2014,04,06,02,22,7.20
2014,04,06,02,23,7.20
2014,04,06,02,24,7.20
2014,04,06,02,25,7.20
2014,04,06,02,26,7.20
2014,04,06,02,27,7.10
2014,04,06,02,28,7.10
2014,04,06,02,29,7.10
2014,04,06,02,30,7.10
2014,04,06,02,31,7.10
2014,04,06,02,32,7.10
2014,04,06,02,33,7.10
2014,04,06,02,34,7.00
2014,04,06,02,35,7.00
2014,04,06,02,36,7.00
2014,04,06,02,37,7.00
2014,04,06,02,38,6.90
2014,04,06,02,39,6.90
2014,04,06,02,40,6.90
2014,04,06,02,41,6.90
2014,04,06,02,42,6.90
2014,04,06,02,43,6.90
2014,04,06,02,44,6.90
2014,04,06,02,45,6.90
2014,04,06,02,46,6.90
2014,04,06,02,47,6.90
2014,04,06,02,48,6.80
2014,04,06,02,49,6.80
2014,04,06,02,50,6.80
2014,04,06,02,51,6.80
2014,04,06,02,52,6.80
2014,04,06,02,53,6.80
2014,04,06,02,54,6.70
2014,04,06,02,55,6.70
2014,04,06,02,56,6.70
2014,04,06,02,57,6.70
2014,04,06,02,58,6.70
2014,04,06,02,59,6.70
2014,04,06,03,00,6.60
2014,04,06,03,01,6.60
2014,04,06,03,02,6.60
2014,04,06,03,03,6.60
2014,04,06,03,04,6.60
2014,04,06,03,05,6.60
2014,04,06,03,06,6.50
2014,04,06,03,07,6.50
2014,04,06,03,08,6.50
2014,04,06,03,09,6.40
2014,04,06,03,10,6.40
2014,04,06,03,11,6.40
2014,04,06,03,12,6.30
2014,04,06,03,13,6.30
2014,04,06,03,14,6.30
2014,04,06,03,15,6.20
2014,04,06,03,16,6.20
2014,04,06,03,17,6.20
2014,04,06,03,18,6.20
2014,04,06,03,19,6.20
2014,04,06,03,20,6.20
2014,04,06,03,21,6.20
2014,04,06,03,22,6.20
2014,04,06,03,23,6.10
2014,04,06,03,24,6.10
2014,04,06,03,25,6.10
2014,04,06,03,26,6.10
2014,04,06,03,27,6.00
2014,04,06,03,28,6.00
2014,04,06,03,29,6.00
2014,04,06,03,30,6.00
2014,04,06,03,31,6.00
2014,04,06,03,32,6.00
2014,04,06,03,33,6.00
2014,04,06,03,34,5.90
2014,04,06,03,35,5.90
2014,04,06,03,36,5.90
2014,04,06,03,37,5.90
2014,04,06,03,38,5.90
2014,04,06,03,39,5.90
2014,04,06,03,40,5.90
2014,04,06,03,41,5.90
2014,04,06,03,42,5.80
2014,04,06,03,43,5.80
2014,04,06,03,44,5.80
2014,04,06,03,45,5.80
2014,04,06,03,46,5.80
2014,04,06,03,47,5.70
2014,04,06,03,48,5.70
2014,04,06,03,49,5.70
2014,04,06,03,50,5.70
2014,04,06,03,51,5.60
2014,04,06,03,52,5.60
2014,04,06,03,53,5.50
2014,04,06,03,54,5.50
2014,04,06,03,55,5.40
2014,04,06,03,56,5.40
2014,04,06,03,57,5.40
2014,04,06,03,58,5.40
2014,04,06,03,59,5.30
2014,04,06,04,00,5.30
2014,04,06,04,01,5.30
2014,04,06,04,02,5.30
2014,04,06,04,03,5.30
2014,04,06,04,04,5.30
2014,04,06,04,05,5.30
2014,04,06,04,06,5.20
2014,04,06,04,07,5.20
2014,04,06,04,08,5.20
2014,04,06,04,09,5.20
2014,04,06,04,10,5.20
2014,04,06,04,11,5.20
2014,04,06,04,12,5.10
2014,04,06,04,13,5.10
2014,04,06,04,14,5.10
2014,04,06,04,15,5.10
2014,04,06,04,16,5.10
2014,04,06,04,17,5.00
2014,04,06,04,18,5.00
2014,04,06,04,19,5.00
2014,04,06,04,20,4.90
2014,04,06,04,21,4.90
2014,04,06,04,22,4.90
2014,04,06,04,23,4.90
2014,04,06,04,24,4.90
2014,04,06,04,25,4.90
2014,04,06,04,26,4.90
2014,04,06,04,27,4.80
2014,04,06,04,28,4.80
2014,04,06,04,29,4.80
2014,04,06,04,30,4.80
2014,04,06,04,31,4.70
2014,04,06,04,32,4.70
2014,04,06,04,33,4.70
2014,04,06,04,34,4.60
2014,04,06,04,35,4.60
2014,04,06,04,36,4.60
2014,04,06,04,37,4.60
2014,04,06,04,38,4.60
2014,04,06,04,39,4.60
2014,04,06,04,40,4.60
2014,04,06,04,41,4.60
2014,04,06,04,42,4.60
2014,04,06,04,43,4.60
2014,04,06,04,44,4.60
2014,04,06,04,45,4.60
2014,04,06,04,46,4.50
2014,04,06,04,47,4.50
2014,04,06,04,48,4.50
2014,04,06,04,49,4.50
2014,04,06,04,50,4.50
2014,04,06,04,51,4.50
2014,04,06,04,52,4.50
2014,04,06,04,53,4.50
2014,04,06,04,54,4.50
2014,04,06,04,55,4.40
2014,04,06,04,56,4.40
2014,04,06,04,57,4.40
2014,04,06,04,58,4.40
2014,04,06,04,59,4.40
2014,04,06,05,00,4.40
2014,04,06,05,01,4.40
2014,04,06,05,02,4.40
2014,04,06,05,03,4.40
2014,04,06,05,04,4.50
2014,04,06,05,05,4.50
2014,04,06,05,06,4.50
2014,04,06,05,07,4.50
2014,04,06,05,08,4.50
2014,04,06,05,09,4.50
2014,04,06,05,10,4.50
2014,04,06,05,11,4.50
2014,04,06,05,12,4.50
2014,04,06,05,13,4.50
2014,04,06,05,14,4.50
2014,04,06,05,15,4.50
2014,04,06,05,16,4.50
2014,04,06,05,17,4.50
2014,04,06,05,18,4.40
2014,04,06,05,19,4.40
2014,04,06,05,20,4.40
2014,04,06,05,21,4.40
2014,04,06,05,22,4.40
2014,04,06,05,23,4.40
2014,04,06,05,24,4.40
2014,04,06,05,25,4.40
2014,04,06,05,26,4.40
2014,04,06,05,27,4.40
2014,04,06,05,28,4.40
2014,04,06,05,29,4.40
2014,04,06,05,30,4.40
2014,04,06,05,31,4.30
2014,04,06,05,32,4.30
2014,04,06,05,33,4.30
2014,04,06,05,34,4.30
2014,04,06,05,35,4.30
2014,04,06,05,36,4.30
2014,04,06,05,37,4.30
2014,04,06,05,38,4.30
2014,04,06,05,39,4.20
2014,04,06,05,40,4.20
2014,04,06,05,41,4.20
2014,04,06,05,42,4.20
2014,04,06,05,43,4.20
2014,04,06,05,44,4.20
2014,04,06,05,45,4.20
2014,04,06,05,46,4.20
2014,04,06,05,47,4.20
2014,04,06,05,48,4.20
2014,04,06,05,49,4.20
2014,04,06,05,50,4.20
2014,04,06,05,51,4.10
2014,04,06,05,52,4.10
2014,04,06,05,53,4.10
2014,04,06,05,54,4.10
2014,04,06,05,55,4.00
2014,04,06,05,56,4.00
2014,04,06,05,57,3.90
2014,04,06,05,58,3.90
2014,04,06,05,59,3.90
2014,04,06,06,00,3.90
2014,04,06,06,01,3.90
2014,04,06,06,02,3.90
2014,04,06,06,03,3.90
2014,04,06,06,04,3.90
2014,04,06,06,05,3.90
2014,04,06,06,06,3.90
2014,04,06,06,07,3.90
2014,04,06,06,08,3.90
2014,04,06,06,09,3.90
2014,04,06,06,10,3.90
2014,04,06,06,11,3.90
2014,04,06,06,12,3.90
2014,04,06,06,13,4.00
2014,04,06,06,14,4.00
2014,04,06,06,15,4.00
2014,04,06,06,16,3.90
2014,04,06,06,17,3.90
2014,04,06,06,18,3.90
2014,04,06,06,19,3.90
2014,04,06,06,20,3.90
2014,04,06,06,21,3.90
2014,04,06,06,22,3.90
2014,04,06,06,23,3.90
2014,04,06,06,24,3.90
2014,04,06,06,25,3.80
2014,04,06,06,26,3.80
2014,04,06,06,27,3.80
2014,04,06,06,28,3.80
2014,04,06,06,29,3.70
2014,04,06,06,30,3.70
2014,04,06,06,31,3.70
2014,04,06,06,32,3.70
2014,04,06,06,33,3.70
2014,04,06,06,34,3.70
2014,04,06,06,35,3.70
2014,04,06,06,36,3.60
2014,04,06,06,37,3.60
2014,04,06,06,38,3.60
2014,04,06,06,39,3.60
2014,04,06,06,40,3.60
2014,04,06,06,41,3.60
2014,04,06,06,42,3.60
2014,04,06,06,43,3.60
2014,04,06,06,44,3.60
2014,04,06,06,45,3.60
2014,04,06,06,46,3.60
2014,04,06,06,47,3.50
2014,04,06,06,48,3.50
2014,04,06,06,49,3.50
2014,04,06,06,50,3.50
2014,04,06,06,51,3.50
2014,04,06,06,52,3.40
2014,04,06,06,53,3.40
2014,04,06,06,54,3.40
2014,04,06,06,55,3.40
2014,04,06,06,56,3.40
2014,04,06,06,57,3.40
2014,04,06,06,58,3.40
2014,04,06,06,59,3.40
2014,04,06,07,00,3.40
2014,04,06,07,01,3.30
2014,04,06,07,02,3.30
2014,04,06,07,03,3.30
2014,04,06,07,04,3.40
2014,04,06,07,05,3.40
2014,04,06,07,06,3.40
2014,04,06,07,07,3.40
2014,04,06,07,08,3.40
2014,04,06,07,09,3.40
2014,04,06,07,10,3.40
2014,04,06,07,11,3.40
2014,04,06,07,12,3.40
2014,04,06,07,13,3.40
2014,04,06,07,14,3.40
2014,04,06,07,15,3.40
2014,04,06,07,16,3.40
2014,04,06,07,17,3.50
2014,04,06,07,18,3.50
2014,04,06,07,19,3.50
2014,04,06,07,20,3.60
2014,04,06,07,21,3.60
2014,04,06,07,22,3.60
2014,04,06,07,23,3.60
2014,04,06,07,24,3.60
2014,04,06,07,25,3.60
2014,04,06,07,26,3.60
2014,04,06,07,27,3.70
2014,04,06,07,28,3.70
2014,04,06,07,29,3.70
2014,04,06,07,30,3.80
2014,04,06,07,31,3.80
2014,04,06,07,32,3.80
2014,04,06,07,33,3.80
2014,04,06,07,34,3.80
2014,04,06,07,35,3.90
2014,04,06,07,36,3.90
2014,04,06,07,37,3.90
2014,04,06,07,38,3.80
2014,04,06,07,39,3.80
2014,04,06,07,40,3.80
2014,04,06,07,41,3.80
2014,04,06,07,42,3.80
2014,04,06,07,43,3.80
2014,04,06,07,44,3.80
2014,04,06,07,45,3.90
2014,04,06,07,46,3.90
2014,04,06,07,47,3.90
2014,04,06,07,48,4.00
2014,04,06,07,49,4.10
2014,04,06,07,50,4.20
2014,04,06,07,51,4.20
2014,04,06,07,52,4.30
2014,04,06,07,53,4.40
2014,04,06,07,54,4.40
2014,04,06,07,55,4.40
2014,04,06,07,56,4.40
2014,04,06,07,57,4.40
2014,04,06,07,58,4.30
2014,04,06,07,59,4.30
2014,04,06,08,00,4.30
2014,04,06,08,01,4.30
2014,04,06,08,02,4.30
2014,04,06,08,03,4.30
2014,04,06,08,04,4.30
2014,04,06,08,05,4.30
2014,04,06,08,06,4.30
2014,04,06,08,07,4.40
2014,04,06,08,08,4.40
2014,04,06,08,09,4.40
2014,04,06,08,10,4.40
2014,04,06,08,11,4.40
2014,04,06,08,12,4.40
2014,04,06,08,13,4.40
2014,04,06,08,14,4.40
2014,04,06,08,15,4.40
2014,04,06,08,16,4.40
2014,04,06,08,17,4.40
2014,04,06,08,18,4.50
2014,04,06,08,19,4.50
2014,04,06,08,20,4.50
2014,04,06,08,21,4.50
2014,04,06,08,22,4.60
2014,04,06,08,23,4.60
2014,04,06,08,24,4.70
2014,04,06,08,25,4.70
2014,04,06,08,26,4.80
2014,04,06,08,27,4.90
2014,04,06,08,28,5.00
2014,04,06,08,29,5.10
2014,04,06,08,30,5.10
2014,04,06,08,31,5.20
2014,04,06,08,32,5.20
2014,04,06,08,33,5.20
2014,04,06,08,34,5.30
2014,04,06,08,35,5.30
2014,04,06,08,36,5.30
2014,04,06,08,37,5.20
2014,04,06,08,38,5.30
2014,04,06,08,39,5.30
2014,04,06,08,40,5.40
2014,04,06,08,41,5.40
2014,04,06,08,42,5.50
2014,04,06,08,43,5.50
2014,04,06,08,44,5.60
2014,04,06,08,45,5.60
2014,04,06,08,46,5.70
2014,04,06,08,47,5.80
2014,04,06,08,48,5.90
2014,04,06,08,49,6.00
2014,04,06,08,50,6.10
2014,04,06,08,51,6.20
2014,04,06,08,52,6.20
2014,04,06,08,53,6.30
2014,04,06,08,54,6.40
2014,04,06,08,55,6.50
2014,04,06,08,56,6.60
2014,04,06,08,57,6.60
2014,04,06,08,58,6.70
2014,04,06,08,59,6.70
2014,04,06,09,00,6.60
2014,04,06,09,01,6.50
2014,04,06,09,02,6.50
2014,04,06,09,03,6.40
2014,04,06,09,04,6.40
2014,04,06,09,05,6.30
2014,04,06,09,06,6.30
2014,04,06,09,07,6.30
2014,04,06,09,08,6.40
2014,04,06,09,09,6.40
2014,04,06,09,10,6.40
2014,04,06,09,11,6.50
2014,04,06,09,12,6.60
2014,04,06,09,13,6.70
2014,04,06,09,14,6.80
2014,04,06,09,15,6.80
2014,04,06,09,16,6.90
2014,04,06,09,17,7.00
2014,04,06,09,18,7.00
2014,04,06,09,19,7.10
2014,04,06,09,20,7.20
2014,04,06,09,21,7.20
2014,04,06,09,22,7.30
2014,04,06,09,23,7.30
2014,04,06,09,24,7.30
2014,04,06,09,25,7.40
2014,04,06,09,26,7.40
2014,04,06,09,27,7.50
2014,04,06,09,28,7.70
2014,04,06,09,29,7.80
2014,04,06,09,30,7.90
2014,04,06,09,31,8.00
2014,04,06,09,32,8.10
2014,04,06,09,33,8.20
2014,04,06,09,34,8.30
2014,04,06,09,35,8.40
2014,04,06,09,36,8.50
2014,04,06,09,37,8.60
2014,04,06,09,38,8.60
2014,04,06,09,39,8.70
2014,04,06,09,40,8.80
2014,04,06,09,41,8.90
2014,04,06,09,42,9.00
2014,04,06,09,43,9.10
2014,04,06,09,44,9.20
2014,04,06,09,45,9.30
2014,04,06,09,46,9.40
2014,04,06,09,47,9.40
2014,04,06,09,48,9.50
2014,04,06,09,49,9.60
2014,04,06,09,50,9.60
2014,04,06,09,51,9.70
2014,04,06,09,52,9.70
2014,04,06,09,53,9.70
2014,04,06,09,54,9.70
2014,04,06,09,55,9.70
2014,04,06,09,56,9.70
2014,04,06,09,57,9.80
2014,04,06,09,58,9.80
2014,04,06,09,59,9.80
2014,04,06,10,00,9.90
2014,04,06,10,01,9.90
2014,04,06,10,02,10.00
2014,04,06,10,03,10.00
2014,04,06,10,04,10.10
2014,04,06,10,05,10.10
2014,04,06,10,06,10.20
2014,04,06,10,07,10.20
2014,04,06,10,08,10.20
2014,04,06,10,09,10.20
2014,04,06,10,10,10.20
2014,04,06,10,11,10.20
2014,04,06,10,12,10.20
2014,04,06,10,13,10.20
2014,04,06,10,14,10.20
2014,04,06,10,15,10.20
2014,04,06,10,16,10.20
2014,04,06,10,17,10.20
2014,04,06,10,18,10.20
2014,04,06,10,19,10.30
2014,04,06,10,20,10.30
2014,04,06,10,21,10.30
2014,04,06,10,22,10.30
2014,04,06,10,23,10.40
2014,04,06,10,24,10.40
2014,04,06,10,25,10.40
2014,04,06,10,26,10.40
2014,04,06,10,27,10.40
2014,04,06,10,28,10.40
2014,04,06,10,29,10.40
2014,04,06,10,30,10.50
2014,04,06,10,31,10.50
2014,04,06,10,32,10.50
2014,04,06,10,33,10.50
2014,04,06,10,34,10.60
2014,04,06,10,35,10.60
2014,04,06,10,36,10.60
2014,04,06,10,37,10.60
2014,04,06,10,38,10.60
2014,04,06,10,39,10.60
2014,04,06,10,40,10.60
2014,04,06,10,41,10.60
2014,04,06,10,42,10.70
2014,04,06,10,43,10.70
2014,04,06,10,44,10.70
2014,04,06,10,45,10.80
2014,04,06,10,46,10.80
2014,04,06,10,47,10.80
2014,04,06,10,48,10.80
2014,04,06,10,49,10.80
2014,04,06,10,50,10.70
2014,04,06,10,51,10.70
2014,04,06,10,52,10.70
2014,04,06,10,53,10.70
2014,04,06,10,54,10.70
2014,04,06,10,55,10.70
2014,04,06,10,56,10.70
2014,04,06,10,57,10.70
2014,04,06,10,58,10.80
2014,04,06,10,59,10.80
2014,04,06,11,00,10.80
2014,04,06,11,01,10.80
2014,04,06,11,02,10.80
2014,04,06,11,03,10.80
2014,04,06,11,04,10.80
2014,04,06,11,05,10.80
2014,04,06,11,06,10.80
2014,04,06,11,07,10.80
2014,04,06,11,08,10.80
2014,04,06,11,09,10.80
2014,04,06,11,10,10.80
2014,04,06,11,11,10.80
2014,04,06,11,12,10.80
2014,04,06,11,13,10.80
2014,04,06,11,14,10.80
2014,04,06,11,15,10.90
2014,04,06,11,16,10.90
2014,04,06,11,17,10.90
2014,04,06,11,18,10.90
2014,04,06,11,19,10.90
2014,04,06,11,20,10.90
2014,04,06,11,21,10.90
2014,04,06,11,22,10.80
2014,04,06,11,23,10.80
2014,04,06,11,24,10.80
2014,04,06,11,25,10.80
2014,04,06,11,26,10.80
2014,04,06,11,27,10.80
2014,04,06,11,28,10.80
2014,04,06,11,29,10.80
2014,04,06,11,30,10.80
2014,04,06,11,31,10.80
2014,04,06,11,32,10.80
2014,04,06,11,33,10.80
2014,04,06,11,34,10.80
2014,04,06,11,35,10.70
2014,04,06,11,36,10.60
2014,04,06,11,37,10.50
2014,04,06,11,38,10.40
2014,04,06,11,39,10.30
2014,04,06,11,40,10.20
2014,04,06,11,41,10.20
2014,04,06,11,42,10.20
2014,04,06,11,43,10.20
2014,04,06,11,44,10.20
2014,04,06,11,45,10.10
2014,04,06,11,46,10.10
2014,04,06,11,47,10.10
2014,04,06,11,48,10.10
2014,04,06,11,49,10.00
2014,04,06,11,50,9.90
2014,04,06,11,51,9.90
2014,04,06,11,52,10.00
2014,04,06,11,53,10.00
2014,04,06,11,54,10.10
2014,04,06,11,55,10.20
2014,04,06,11,56,10.30
2014,04,06,11,57,10.40
2014,04,06,11,58,10.40
2014,04,06,11,59,10.50
2014,04,06,12,00,10.60
2014,04,06,12,01,10.70
2014,04,06,12,02,10.70
2014,04,06,12,03,10.70
2014,04,06,12,04,10.80
2014,04,06,12,05,10.80
2014,04,06,12,06,10.80
2014,04,06,12,07,10.90
2014,04,06,12,08,10.90
2014,04,06,12,09,11.00
2014,04,06,12,10,11.00
2014,04,06,12,11,11.00
2014,04,06,12,12,11.10
2014,04,06,12,13,11.10
2014,04,06,12,14,11.10
2014,04,06,12,15,11.10
2014,04,06,12,16,11.10
2014,04,06,12,17,11.10
2014,04,06,12,18,11.10
2014,04,06,12,19,11.10
2014,04,06,12,20,11.10
2014,04,06,12,21,11.10
2014,04,06,12,22,11.10
2014,04,06,12,23,11.00
2014,04,06,12,24,11.00
2014,04,06,12,25,11.00
2014,04,06,12,26,10.90
2014,04,06,12,27,10.90
2014,04,06,12,28,11.00
2014,04,06,12,29,11.00
2014,04,06,12,30,11.10
2014,04,06,12,31,11.10
2014,04,06,12,32,11.10
2014,04,06,12,33,11.10
2014,04,06,12,34,11.10
2014,04,06,12,35,11.10
2014,04,06,12,36,11.00
2014,04,06,12,37,11.00
2014,04,06,12,38,11.00
2014,04,06,12,39,11.10
2014,04,06,12,40,11.20
2014,04,06,12,41,11.20
2014,04,06,12,42,11.30
2014,04,06,12,43,11.40
2014,04,06,12,44,11.50
2014,04,06,12,45,11.70
2014,04,06,12,46,11.80
2014,04,06,12,47,11.90
2014,04,06,12,48,12.00
2014,04,06,12,49,12.10
2014,04,06,12,50,12.10
2014,04,06,12,51,12.20
2014,04,06,12,52,12.20
2014,04,06,12,53,12.20
2014,04,06,12,54,12.30
2014,04,06,12,55,12.30
2014,04,06,12,56,12.30
2014,04,06,12,57,12.30
2014,04,06,12,58,12.30
2014,04,06,12,59,12.20
2014,04,06,13,00,12.20
2014,04,06,13,01,12.20
2014,04,06,13,02,12.20
2014,04,06,13,03,12.20
2014,04,06,13,04,12.20
2014,04,06,13,05,12.20
2014,04,06,13,06,12.20
2014,04,06,13,07,12.10
2014,04,06,13,08,12.10
2014,04,06,13,09,12.20
2014,04,06,13,10,12.20
2014,04,06,13,11,12.20
2014,04,06,13,12,12.20
2014,04,06,13,13,12.10
2014,04,06,13,14,12.20
2014,04,06,13,15,12.20
2014,04,06,13,16,12.30
2014,04,06,13,17,12.40
2014,04,06,13,18,12.50
2014,04,06,13,19,12.50
2014,04,06,13,20,12.60
2014,04,06,13,21,12.60
2014,04,06,13,22,12.60
2014,04,06,13,23,12.60
2014,04,06,13,24,12.60
2014,04,06,13,25,12.50
2014,04,06,13,26,12.50
2014,04,06,13,27,12.60
2014,04,06,13,28,12.60
2014,04,06,13,29,12.60
2014,04,06,13,30,12.50
2014,04,06,13,31,12.40
2014,04,06,13,32,12.40
2014,04,06,13,33,12.40
2014,04,06,13,34,12.40
2014,04,06,13,35,12.50
2014,04,06,13,36,12.60
2014,04,06,13,37,12.60
2014,04,06,13,38,12.70
2014,04,06,13,39,12.70
2014,04,06,13,40,12.70
2014,04,06,13,41,12.70
2014,04,06,13,42,12.70
2014,04,06,13,43,12.60
2014,04,06,13,44,12.60
2014,04,06,13,45,12.60
2014,04,06,13,46,12.60
2014,04,06,13,47,12.60
2014,04,06,13,48,12.60
2014,04,06,13,49,12.60
2014,04,06,13,50,12.60
2014,04,06,13,51,12.50
2014,04,06,13,52,12.40
2014,04,06,13,53,12.30
2014,04,06,13,54,12.30
2014,04,06,13,55,12.30
2014,04,06,13,56,12.30
2014,04,06,13,57,12.30
2014,04,06,13,58,12.20
2014,04,06,13,59,12.20
2014,04,06,14,00,12.20
2014,04,06,14,01,12.10
2014,04,06,14,02,12.10
2014,04,06,14,03,12.00
2014,04,06,14,04,12.00
2014,04,06,14,05,11.90
2014,04,06,14,06,11.80
2014,04,06,14,07,11.80
2014,04,06,14,08,11.80
2014,04,06,14,09,11.80
2014,04,06,14,10,11.70
2014,04,06,14,11,11.70
2014,04,06,14,12,11.70
2014,04,06,14,13,11.70
2014,04,06,14,14,11.80
2014,04,06,14,15,11.80
2014,04,06,14,16,11.80
2014,04,06,14,17,11.80
2014,04,06,14,18,11.80
2014,04,06,14,19,11.70
2014,04,06,14,20,11.70
2014,04,06,14,21,11.70
2014,04,06,14,22,11.70
2014,04,06,14,23,11.70
2014,04,06,14,24,11.60
2014,04,06,14,25,11.60
2014,04,06,14,26,11.50
2014,04,06,14,27,11.50
2014,04,06,14,28,11.40
2014,04,06,14,29,11.40
2014,04,06,14,30,11.40
2014,04,06,14,31,11.30
2014,04,06,14,32,11.30
2014,04,06,14,33,11.30
2014,04,06,14,34,11.30
2014,04,06,14,35,11.30
2014,04,06,14,36,11.40
2014,04,06,14,37,11.40
2014,04,06,14,38,11.50
2014,04,06,14,39,11.50
2014,04,06,14,40,11.50
2014,04,06,14,41,11.50
2014,04,06,14,42,11.40
2014,04,06,14,43,11.40
2014,04,06,14,44,11.40
2014,04,06,14,45,11.40
2014,04,06,14,46,11.40
2014,04,06,14,47,11.40
2014,04,06,14,48,11.40
2014,04,06,14,49,11.40
2014,04,06,14,50,11.50
2014,04,06,14,51,11.50
2014,04,06,14,52,11.50
2014,04,06,14,53,11.60
2014,04,06,14,54,11.70
2014,04,06,14,55,11.90
2014,04,06,14,56,12.00
2014,04,06,14,57,12.20
2014,04,06,14,58,12.30
2014,04,06,14,59,12.40
2014,04,06,15,00,12.60
2014,04,06,15,01,12.70
2014,04,06,15,02,12.70
2014,04,06,15,03,12.80
2014,04,06,15,04,12.80
2014,04,06,15,05,12.80
2014,04,06,15,06,12.80
2014,04,06,15,07,12.80
2014,04,06,15,08,12.90
2014,04,06,15,09,12.90
2014,04,06,15,10,12.90
2014,04,06,15,11,12.80
2014,04,06,15,12,12.80
2014,04,06,15,13,12.90
2014,04,06,15,14,12.90
2014,04,06,15,15,12.90
2014,04,06,15,16,13.00
2014,04,06,15,17,13.10
2014,04,06,15,18,13.20
2014,04,06,15,19,13.30
2014,04,06,15,20,13.30
2014,04,06,15,21,13.20
2014,04,06,15,22,13.20
2014,04,06,15,23,13.30
2014,04,06,15,24,13.30
2014,04,06,15,25,13.30
2014,04,06,15,26,13.30
2014,04,06,15,27,13.20
2014,04,06,15,28,13.00
2014,04,06,15,29,12.90
2014,04,06,15,30,12.90
2014,04,06,15,31,12.80
2014,04,06,15,32,12.80
2014,04,06,15,33,12.70
2014,04,06,15,34,12.50
2014,04,06,15,35,12.40
2014,04,06,15,36,12.30
2014,04,06,15,37,12.30
2014,04,06,15,38,12.30
2014,04,06,15,39,12.30
2014,04,06,15,40,12.30
2014,04,06,15,41,12.30
2014,04,06,15,42,12.40
2014,04,06,15,43,12.40
2014,04,06,15,44,12.40
2014,04,06,15,45,12.40
2014,04,06,15,46,12.40
2014,04,06,15,47,12.40
2014,04,06,15,48,12.40
2014,04,06,15,49,12.40
2014,04,06,15,50,12.30
2014,04,06,15,51,12.40
2014,04,06,15,52,12.30
2014,04,06,15,53,12.30
2014,04,06,15,54,12.30
2014,04,06,15,55,12.30
2014,04,06,15,56,12.30
2014,04,06,15,57,12.30
2014,04,06,15,58,12.30
2014,04,06,15,59,12.20
2014,04,06,16,00,12.30
2014,04,06,16,01,12.30
2014,04,06,16,02,12.20
2014,04,06,16,03,12.20
2014,04,06,16,04,12.20
2014,04,06,16,05,12.20
2014,04,06,16,06,12.20
2014,04,06,16,07,12.20
2014,04,06,16,08,12.20
2014,04,06,16,09,12.10
2014,04,06,16,10,12.00
2014,04,06,16,11,12.00
2014,04,06,16,12,12.00
2014,04,06,16,13,12.00
2014,04,06,16,14,11.90
2014,04,06,16,15,11.90
2014,04,06,16,16,11.90
2014,04,06,16,17,11.80
2014,04,06,16,18,11.80
2014,04,06,16,19,11.80
2014,04,06,16,20,11.80
2014,04,06,16,21,11.90
2014,04,06,16,22,11.80
2014,04,06,16,23,11.80
2014,04,06,16,24,11.80
2014,04,06,16,25,11.70
2014,04,06,16,26,11.70
2014,04,06,16,27,11.70
2014,04,06,16,28,11.80
2014,04,06,16,29,11.80
2014,04,06,16,30,11.70
2014,04,06,16,31,11.70
2014,04,06,16,32,11.70
2014,04,06,16,33,11.70
2014,04,06,16,34,11.70
2014,04,06,16,35,11.70
2014,04,06,16,36,11.70
2014,04,06,16,37,11.70
2014,04,06,16,38,11.70
2014,04,06,16,39,11.70
2014,04,06,16,40,11.70
2014,04,06,16,41,11.70
2014,04,06,16,42,11.70
2014,04,06,16,43,11.70
2014,04,06,16,44,11.70
2014,04,06,16,45,11.60
2014,04,06,16,46,11.60
2014,04,06,16,47,11.60
2014,04,06,16,48,11.50
2014,04,06,16,49,11.40
2014,04,06,16,50,11.40
2014,04,06,16,51,11.40
2014,04,06,16,52,11.40
2014,04,06,16,53,11.50
2014,04,06,16,54,11.50
2014,04,06,16,55,11.50
2014,04,06,16,56,11.50
2014,04,06,16,57,11.50
2014,04,06,16,58,11.50
2014,04,06,16,59,11.50
2014,04,06,17,00,11.50
2014,04,06,17,01,11.50
2014,04,06,17,02,11.50
2014,04,06,17,03,11.50
2014,04,06,17,04,11.50
2014,04,06,17,05,11.50
2014,04,06,17,06,11.50
2014,04,06,17,07,11.40
2014,04,06,17,08,11.40
2014,04,06,17,09,11.40
2014,04,06,17,10,11.30
2014,04,06,17,11,11.30
2014,04,06,17,12,11.30
2014,04,06,17,13,11.30
2014,04,06,17,14,11.30
2014,04,06,17,15,11.30
2014,04,06,17,16,11.30
2014,04,06,17,17,11.30
2014,04,06,17,18,11.30
2014,04,06,17,19,11.40
2014,04,06,17,20,11.40
2014,04,06,17,21,11.40
2014,04,06,17,22,11.40
2014,04,06,17,23,11.40
2014,04,06,17,24,11.40
2014,04,06,17,25,11.40
2014,04,06,17,26,11.40
2014,04,06,17,27,11.40
2014,04,06,17,28,11.40
2014,04,06,17,29,11.40
2014,04,06,17,30,11.40
2014,04,06,17,31,11.40
2014,04,06,17,32,11.50
2014,04,06,17,33,11.40
2014,04,06,17,34,11.40
2014,04,06,17,35,11.40
2014,04,06,17,36,11.40
2014,04,06,17,37,11.40
2014,04,06,17,38,11.40
2014,04,06,17,39,11.40
2014,04,06,17,40,11.40
2014,04,06,17,41,11.40
2014,04,06,17,42,11.40
2014,04,06,17,43,11.40
2014,04,06,17,44,11.40
2014,04,06,17,45,11.40